﻿測定場所 (Monitoring sites),日付 (Measurement date),時間 (Measurement time),線量率 最大値 (max) μGy/h,線量率 最小値 (min) μGy/h,線量率 平均値 (average) μGy/h,
大田 (Ota),2015-11-08,23:01～24:00,0.0437,0.0365,0.0399,
大田 (Ota),2015-11-08,22:01～23:00,0.0437,0.0364,0.0400,
大田 (Ota),2015-11-08,21:01～22:00,0.0440,0.0366,0.0410,
大田 (Ota),2015-11-08,20:01～21:00,0.0431,0.0361,0.0392,
大田 (Ota),2015-11-08,19:01～20:00,0.0425,0.0359,0.0388,
大田 (Ota),2015-11-08,18:01～19:00,0.0435,0.0371,0.0401,
大田 (Ota),2015-11-08,17:01～18:00,0.0453,0.0370,0.0418,
大田 (Ota),2015-11-08,16:01～17:00,0.0496,0.0416,0.0451,
大田 (Ota),2015-11-08,15:01～16:00,0.0495,0.0424,0.0463,
大田 (Ota),2015-11-08,14:01～15:00,0.0498,0.0422,0.0466,
大田 (Ota),2015-11-08,13:01～14:00,0.0482,0.0399,0.0446,
大田 (Ota),2015-11-08,12:01～13:00,0.0487,0.0412,0.0447,
大田 (Ota),2015-11-08,11:01～12:00,0.0493,0.0423,0.0460,
大田 (Ota),2015-11-08,10:01～11:00,0.0488,0.0392,0.0432,
大田 (Ota),2015-11-08,09:01～10:00,0.0453,0.0388,0.0419,
大田 (Ota),2015-11-08,08:01～09:00,0.0437,0.0372,0.0404,
大田 (Ota),2015-11-08,07:01～08:00,0.0436,0.0356,0.0394,
大田 (Ota),2015-11-08,06:01～07:00,0.0422,0.0360,0.0388,
大田 (Ota),2015-11-08,05:01～06:00,0.0419,0.0353,0.0387,
大田 (Ota),2015-11-08,04:01～05:00,0.0428,0.0366,0.0391,
大田 (Ota),2015-11-08,03:01～04:00,0.0422,0.0368,0.0389,
大田 (Ota),2015-11-08,02:01～03:00,0.0414,0.0365,0.0388,
大田 (Ota),2015-11-08,01:01～02:00,0.0426,0.0354,0.0387,
大田 (Ota),2015-11-08,00:01～01:00,0.0429,0.0362,0.0390,
大田 (Ota),2015-11-07,23:01～24:00,0.0422,0.0365,0.0390,
大田 (Ota),2015-11-07,22:01～23:00,0.0416,0.0365,0.0389,
大田 (Ota),2015-11-07,21:01～22:00,0.0428,0.0363,0.0387,
大田 (Ota),2015-11-07,20:01～21:00,0.0422,0.0360,0.0389,
大田 (Ota),2015-11-07,19:01～20:00,0.0417,0.0359,0.0386,
大田 (Ota),2015-11-07,18:01～19:00,0.0418,0.0359,0.0388,
大田 (Ota),2015-11-07,17:01～18:00,0.0412,0.0361,0.0389,
大田 (Ota),2015-11-07,16:01～17:00,0.0411,0.0359,0.0384,
大田 (Ota),2015-11-07,15:01～16:00,0.0425,0.0366,0.0390,
大田 (Ota),2015-11-07,14:01～15:00,0.0437,0.0362,0.0389,
大田 (Ota),2015-11-07,13:01～14:00,0.0426,0.0363,0.0388,
大田 (Ota),2015-11-07,12:01～13:00,0.0422,0.0364,0.0392,
大田 (Ota),2015-11-07,11:01～12:00,0.0425,0.0363,0.0396,
大田 (Ota),2015-11-07,10:01～11:00,0.0424,0.0367,0.0398,
大田 (Ota),2015-11-07,09:01～10:00,0.0424,0.0364,0.0396,
大田 (Ota),2015-11-07,08:01～09:00,0.0424,0.0362,0.0395,
大田 (Ota),2015-11-07,07:01～08:00,0.0428,0.0355,0.0395,
大田 (Ota),2015-11-07,06:01～07:00,0.0419,0.0362,0.0390,
大田 (Ota),2015-11-07,05:01～06:00,0.0433,0.0367,0.0395,
大田 (Ota),2015-11-07,04:01～05:00,0.0434,0.0367,0.0395,
大田 (Ota),2015-11-07,03:01～04:00,0.0430,0.0363,0.0392,
大田 (Ota),2015-11-07,02:01～03:00,0.0424,0.0366,0.0394,
大田 (Ota),2015-11-07,01:01～02:00,0.0430,0.0359,0.0390,
大田 (Ota),2015-11-07,00:01～01:00,0.0418,0.0359,0.0386,
大田 (Ota),2015-11-06,23:01～24:00,0.0421,0.0359,0.0388,
大田 (Ota),2015-11-06,22:01～23:00,0.0419,0.0362,0.0385,
大田 (Ota),2015-11-06,21:01～22:00,0.0417,0.0359,0.0383,
大田 (Ota),2015-11-06,20:01～21:00,0.0428,0.0366,0.0388,
大田 (Ota),2015-11-06,19:01～20:00,0.0417,0.0365,0.0387,
大田 (Ota),2015-11-06,18:01～19:00,0.0411,0.0360,0.0382,
大田 (Ota),2015-11-06,17:01～18:00,0.0419,0.0359,0.0386,
大田 (Ota),2015-11-06,16:01～17:00,0.0418,0.0357,0.0387,
大田 (Ota),2015-11-06,15:01～16:00,0.0422,0.0358,0.0379,
大田 (Ota),2015-11-06,14:01～15:00,0.0426,0.0360,0.0387,
大田 (Ota),2015-11-06,13:01～14:00,0.0433,0.0365,0.0387,
大田 (Ota),2015-11-06,12:01～13:00,0.0421,0.0363,0.0386,
大田 (Ota),2015-11-06,11:01～12:00,0.0446,0.0365,0.0397,
大田 (Ota),2015-11-06,10:01～11:00,0.0436,0.0367,0.0398,
大田 (Ota),2015-11-06,09:01～10:00,0.0426,0.0367,0.0393,
大田 (Ota),2015-11-06,08:01～09:00,0.0432,0.0357,0.0399,
大田 (Ota),2015-11-06,07:01～08:00,0.0424,0.0366,0.0400,
大田 (Ota),2015-11-06,06:01～07:00,0.0433,0.0359,0.0393,
大田 (Ota),2015-11-06,05:01～06:00,0.0425,0.0368,0.0395,
大田 (Ota),2015-11-06,04:01～05:00,0.0425,0.0369,0.0393,
大田 (Ota),2015-11-06,03:01～04:00,0.0430,0.0364,0.0395,
大田 (Ota),2015-11-06,02:01～03:00,0.0433,0.0358,0.0399,
大田 (Ota),2015-11-06,01:01～02:00,0.0421,0.0362,0.0393,
大田 (Ota),2015-11-06,00:01～01:00,0.0422,0.0362,0.0389,
大田 (Ota),2015-11-05,23:01～24:00,0.0411,0.0359,0.0383,
大田 (Ota),2015-11-05,22:01～23:00,0.0411,0.0357,0.0382,
大田 (Ota),2015-11-05,21:01～22:00,0.0418,0.0355,0.0385,
大田 (Ota),2015-11-05,20:01～21:00,0.0414,0.0351,0.0381,
大田 (Ota),2015-11-05,19:01～20:00,0.0428,0.0365,0.0385,
大田 (Ota),2015-11-05,18:01～19:00,0.0415,0.0360,0.0386,
大田 (Ota),2015-11-05,17:01～18:00,0.0420,0.0361,0.0387,
大田 (Ota),2015-11-05,16:01～17:00,0.0409,0.0362,0.0384,
大田 (Ota),2015-11-05,15:01～16:00,0.0414,0.0362,0.0384,
大田 (Ota),2015-11-05,14:01～15:00,0.0421,0.0363,0.0388,
大田 (Ota),2015-11-05,13:01～14:00,0.0423,0.0364,0.0387,
大田 (Ota),2015-11-05,12:01～13:00,0.0417,0.0361,0.0385,
大田 (Ota),2015-11-05,11:01～12:00,0.0431,0.0355,0.0392,
大田 (Ota),2015-11-05,10:01～11:00,0.0426,0.0366,0.0397,
大田 (Ota),2015-11-05,09:01～10:00,0.0431,0.0369,0.0398,
大田 (Ota),2015-11-05,08:01～09:00,0.0436,0.0369,0.0398,
大田 (Ota),2015-11-05,07:01～08:00,0.0430,0.0370,0.0398,
大田 (Ota),2015-11-05,06:01～07:00,0.0426,0.0363,0.0394,
大田 (Ota),2015-11-05,05:01～06:00,0.0426,0.0366,0.0393,
大田 (Ota),2015-11-05,04:01～05:00,0.0428,0.0364,0.0394,
大田 (Ota),2015-11-05,03:01～04:00,0.0435,0.0357,0.0393,
大田 (Ota),2015-11-05,02:01～03:00,0.0422,0.0367,0.0394,
大田 (Ota),2015-11-05,01:01～02:00,0.0426,0.0362,0.0391,
大田 (Ota),2015-11-05,00:01～01:00,0.0426,0.0365,0.0389,
大田 (Ota),2015-11-04,23:01～24:00,0.0419,0.0356,0.0388,
大田 (Ota),2015-11-04,22:01～23:00,0.0415,0.0361,0.0386,
大田 (Ota),2015-11-04,21:01～22:00,0.0418,0.0361,0.0383,
大田 (Ota),2015-11-04,20:01～21:00,0.0407,0.0363,0.0380,
大田 (Ota),2015-11-04,19:01～20:00,0.0417,0.0349,0.0379,
大田 (Ota),2015-11-04,18:01～19:00,0.0408,0.0357,0.0381,
大田 (Ota),2015-11-04,17:01～18:00,0.0424,0.0358,0.0382,
大田 (Ota),2015-11-04,16:01～17:00,0.0415,0.0355,0.0379,
大田 (Ota),2015-11-04,15:01～16:00,0.0411,0.0359,0.0381,
大田 (Ota),2015-11-04,14:01～15:00,0.0438,0.0359,0.0383,
大田 (Ota),2015-11-04,13:01～14:00,0.0409,0.0363,0.0384,
大田 (Ota),2015-11-04,12:01～13:00,0.0426,0.0360,0.0388,
大田 (Ota),2015-11-04,11:01～12:00,0.0430,0.0365,0.0386,
大田 (Ota),2015-11-04,10:01～11:00,0.0423,0.0361,0.0388,
大田 (Ota),2015-11-04,09:01～10:00,0.0417,0.0362,0.0386,
大田 (Ota),2015-11-04,08:01～09:00,0.0416,0.0352,0.0391,
大田 (Ota),2015-11-04,07:01～08:00,0.0417,0.0360,0.0387,
大田 (Ota),2015-11-04,06:01～07:00,0.0418,0.0357,0.0387,
大田 (Ota),2015-11-04,05:01～06:00,0.0414,0.0362,0.0383,
大田 (Ota),2015-11-04,04:01～05:00,0.0408,0.0359,0.0381,
大田 (Ota),2015-11-04,03:01～04:00,0.0409,0.0357,0.0383,
大田 (Ota),2015-11-04,02:01～03:00,0.0412,0.0356,0.0380,
大田 (Ota),2015-11-04,01:01～02:00,0.0408,0.0362,0.0381,
大田 (Ota),2015-11-04,00:01～01:00,0.0428,0.0354,0.0382,
大田 (Ota),2015-11-03,23:01～24:00,0.0429,0.0354,0.0384,
大田 (Ota),2015-11-03,22:01～23:00,0.0409,0.0356,0.0380,
大田 (Ota),2015-11-03,21:01～22:00,0.0428,0.0359,0.0383,
大田 (Ota),2015-11-03,20:01～21:00,0.0416,0.0353,0.0384,
大田 (Ota),2015-11-03,19:01～20:00,0.0417,0.0359,0.0386,
大田 (Ota),2015-11-03,18:01～19:00,0.0408,0.0364,0.0381,
大田 (Ota),2015-11-03,17:01～18:00,0.0422,0.0355,0.0384,
大田 (Ota),2015-11-03,16:01～17:00,0.0423,0.0360,0.0383,
大田 (Ota),2015-11-03,15:01～16:00,0.0407,0.0360,0.0379,
大田 (Ota),2015-11-03,14:01～15:00,0.0424,0.0355,0.0380,
大田 (Ota),2015-11-03,13:01～14:00,0.0413,0.0361,0.0383,
大田 (Ota),2015-11-03,12:01～13:00,0.0434,0.0359,0.0388,
大田 (Ota),2015-11-03,11:01～12:00,0.0422,0.0366,0.0389,
大田 (Ota),2015-11-03,10:01～11:00,0.0438,0.0363,0.0391,
大田 (Ota),2015-11-03,09:01～10:00,0.0436,0.0367,0.0394,
大田 (Ota),2015-11-03,08:01～09:00,0.0428,0.0361,0.0393,
大田 (Ota),2015-11-03,07:01～08:00,0.0422,0.0365,0.0392,
大田 (Ota),2015-11-03,06:01～07:00,0.0422,0.0364,0.0392,
大田 (Ota),2015-11-03,05:01～06:00,0.0417,0.0362,0.0388,
大田 (Ota),2015-11-03,04:01～05:00,0.0424,0.0369,0.0392,
大田 (Ota),2015-11-03,03:01～04:00,0.0421,0.0360,0.0390,
大田 (Ota),2015-11-03,02:01～03:00,0.0418,0.0361,0.0385,
大田 (Ota),2015-11-03,01:01～02:00,0.0422,0.0351,0.0385,
大田 (Ota),2015-11-03,00:01～01:00,0.0413,0.0364,0.0385,
大田 (Ota),2015-11-02,23:01～24:00,0.0411,0.0354,0.0383,
大田 (Ota),2015-11-02,22:01～23:00,0.0420,0.0362,0.0385,
大田 (Ota),2015-11-02,21:01～22:00,0.0415,0.0356,0.0385,
大田 (Ota),2015-11-02,20:01～21:00,0.0417,0.0361,0.0387,
大田 (Ota),2015-11-02,19:01～20:00,0.0412,0.0362,0.0386,
大田 (Ota),2015-11-02,18:01～19:00,0.0416,0.0359,0.0382,
大田 (Ota),2015-11-02,17:01～18:00,0.0420,0.0362,0.0386,
大田 (Ota),2015-11-02,16:01～17:00,0.0420,0.0355,0.0386,
大田 (Ota),2015-11-02,15:01～16:00,0.0419,0.0363,0.0387,
大田 (Ota),2015-11-02,14:01～15:00,0.0411,0.0361,0.0385,
大田 (Ota),2015-11-02,13:01～14:00,0.0431,0.0366,0.0399,
大田 (Ota),2015-11-02,12:01～13:00,0.0494,0.0394,0.0439,
大田 (Ota),2015-11-02,11:01～12:00,0.0576,0.0447,0.0508,
大田 (Ota),2015-11-02,10:01～11:00,0.0631,0.0554,0.0586,
大田 (Ota),2015-11-02,09:01～10:00,0.0630,0.0553,0.0597,
大田 (Ota),2015-11-02,08:01～09:00,0.0630,0.0529,0.0575,
大田 (Ota),2015-11-02,07:01～08:00,0.0619,0.0489,0.0563,
大田 (Ota),2015-11-02,06:01～07:00,0.0536,0.0451,0.0497,
大田 (Ota),2015-11-02,05:01～06:00,0.0503,0.0439,0.0470,
大田 (Ota),2015-11-02,04:01～05:00,0.0489,0.0407,0.0451,
大田 (Ota),2015-11-02,03:01～04:00,0.0449,0.0371,0.0418,
大田 (Ota),2015-11-02,02:01～03:00,0.0450,0.0374,0.0415,
大田 (Ota),2015-11-02,01:01～02:00,0.0446,0.0377,0.0414,
大田 (Ota),2015-11-02,00:01～01:00,0.0431,0.0369,0.0400,
